"Pseudo-MPEC" for ZTF10FQ

Created 2026 Aug 17 0:35:30 UT using Find_Orb

Click here for an explanation of pseudo-MPECs

 
 Astrometry: 
     ZTF10FQ*0C2026 08 16.26552921 28 46.055-05 02 01.22   ~8G9K 17.77RUNEOCPI41
     ZTF10FQ 0C2026 08 16.26587621 28 48.901-05 02 11.41   ~8G9K 17.77RUNEOCPI41
     ZTF10FQ 0C2026 08 16.27908921 30 36.734-05 08 40.96   ~8G9K 17.66RUNEOCPI41
     ZTF10FQ 0C2026 08 16.27943721 30 39.527-05 08 51.16   ~8G9K 17.66RUNEOCPI41

Station data:
(I41) Palomar Mountain--ZTF  (N33.357336 W116.859780)  US/California.
   Observers B. T. Bolin, Z. T. F. Collaboration. Measurers B. T. Bolin,
   Z.-Y. Lin, F. J. Masci. 1.2-m f/2.4 Schmidt.

Orbital elements:  ZTF10FQ
   Perihelion 2026 Sep 22.279002 +/- 37.5 TT =  6:41:45.7 (JD 2461305.779002)
Epoch 2026 Aug 16.0 TT = JDT 2461268.5   Earth MOID: 0.0006   Ju: 0.2992
M 359.957256859 +/- 23              Ve: 0.0557   Sa: 0.6502      AutoNEOCP
n   0.001146574 +/-                 Peri.  245.743562 +/- 51
a  90.40683829 +/-                  Node   143.323984 +/- 60
e   0.99206918 +/- 0.255            Incl.   10.930166 +/- 3.2
P 859.61092                H 28.91  G  0.15   U 10.6  SR
q 0.717000247 +/- 0.122    Q 180.0966763 +/- 41.9         (J2000 ecliptic)
From 4 observations 2026 Aug. 16 (20.0 min); mean residual 0".70
Residuals in arcseconds: 
260816 I41  .83-  .14+    260816 I41  1.1+  .20-    
260816 I41  .82+  .14-    260816 I41  1.1-  .20+    

Ephemerides (geocentric):
Date (UTC) HH   RA             Dec           delta  r     elong  mag " sig PA
---- --------  ------------   ------------  ------ ------ -----  --- --------
2026 08 17 01  07 46 44.746   -00 46 27.39  846999 1.0077  32.5 25??  65d  93
2026 08 17 02  07 51 16.209   -00 31 22.16  930581 1.0072  31.4 26??  66d  93
2026 08 17 03  07 55 02.838   -00 18 45.73  .00678 1.0067  30.5 26??  66d  93
2026 08 17 04  07 58 14.797   -00 08 04.69  .00734 1.0061  29.8 26??  67d  93
2026 08 17 05  08 00 59.420   +00 01 05.21  .00791 1.0056  29.1 27??  61d  93
2026 08 17 06  08 03 22.119   +00 09 01.93  .00847 1.0050  28.6 27??  61d  93
2026 08 17 07  08 05 26.978   +00 15 59.06  .00904 1.0045  28.1 27??  61d  93
2026 08 17 08  08 07 17.129   +00 22 07.05  .00960 1.0040  27.6 27??  61d  93
2026 08 17 09  08 08 55.015   +00 27 34.04  .01017 1.0034  27.3 27??  61d  93
2026 08 17 10  08 10 22.570   +00 32 26.50  .01074 1.0029  26.9 28??  61d  93
2026 08 17 11  08 11 41.341   +00 36 49.60  .01131 1.0023  26.7 28??  62d  93
2026 08 17 12  08 12 52.584   +00 40 47.55  .01187 1.0018  26.4 28??  62d  93
2026 08 17 13  08 13 57.327   +00 44 23.78  .01244 1.0013  26.2 28??  62d  93
2026 08 17 14  08 14 56.418   +00 47 41.14  .01301 1.0007  25.9 28??  62d  93
2026 08 17 15  08 15 50.565   +00 50 41.99  .01358 1.0002  25.7 28??  62d  93
2026 08 17 16  08 16 40.364   +00 53 28.32  .01415 0.9996  25.6 28??  62d  93
2026 08 17 17  08 17 26.317   +00 56 01.82  .01472 0.9991  25.4 29??  62d  93
2026 08 17 18  08 18 08.853   +00 58 23.92  .01529 0.9986  25.3 29??  62d  93
2026 08 17 19  08 18 48.339   +01 00 35.86  .01586 0.9980  25.1 29??  62d  93
2026 08 17 20  08 19 25.092   +01 02 38.69  .01643 0.9975  25.0 29??  62d  93
2026 08 17 21  08 19 59.387   +01 04 33.32  .01700 0.9970  24.9 29??  62d  93
2026 08 17 22  08 20 31.462   +01 06 20.57  .01756 0.9964  24.8 29??  62d  93
2026 08 17 23  08 21 01.527   +01 08 01.12  .01813 0.9959  24.7 29??  62d  93
2026 08 18 00  08 21 29.764   +01 09 35.60  .01870 0.9953  24.6 29??  62d  93
2026 08 18 01  08 21 56.337   +01 11 04.53  .01927 0.9948  24.5 29??  62d  93
2026 08 18 02  08 22 21.388   +01 12 28.41  .01985 0.9943  24.5 29??  62d  93
2026 08 18 03  08 22 45.045   +01 13 47.66  .02042 0.9937  24.4 30??  63d  93
2026 08 18 04  08 23 07.422   +01 15 02.65  .02099 0.9932  24.3 30??  65d  94
2026 08 18 05  08 23 28.620   +01 16 13.74  .02156 0.9927  24.3 30??  66d  93
2026 08 18 06  08 23 48.730   +01 17 21.21  .02213 0.9921  24.2 30??  67d  93
2026 08 18 07  08 24 07.834   +01 18 25.34  .02270 0.9916  24.2 30??  67d  93
2026 08 18 08  08 24 26.007   +01 19 26.39  .02327 0.9911  24.1 30??  67d  93
2026 08 18 09  08 24 43.316   +01 20 24.58  .02384 0.9905  24.1 30??  68d  93
2026 08 18 10  08 24 59.820   +01 21 20.10  .02441 .99000  24.0 30??  68d  93
2026 08 18 11  08 25 15.576   +01 22 13.15  .02498 .98946  24.0 30??  68d  93
2026 08 18 12  08 25 30.634   +01 23 03.88  .02555 .98893  24.0 30??  68d  93
2026 08 18 13  08 25 45.038   +01 23 52.46  .02612 .98840  23.9 30??  68d  93
2026 08 18 14  08 25 58.833   +01 24 39.02  .02669 .98786  23.9 30??  63d  93
2026 08 18 15  08 26 12.055   +01 25 23.69  .02726 .98733  23.9 30??  63d  93
2026 08 18 16  08 26 24.740   +01 26 06.59  .02783 .98680  23.9 30??  63d  93
2026 08 18 17  08 26 36.920   +01 26 47.82  .02841 .98627  23.8 30??  63d  93
2026 08 18 18  08 26 48.627   +01 27 27.49  .02898 .98573  23.8 30??  63d  93
2026 08 18 19  08 26 59.886   +01 28 05.69  .02955 .98520  23.8 30??  63d  93
2026 08 18 20  08 27 10.724   +01 28 42.50  .03012 .98467  23.8 30??  63d  93
2026 08 18 21  08 27 21.165   +01 29 18.00  .03069 .98414  23.8 30??  63d  93
2026 08 18 22  08 27 31.229   +01 29 52.26  .03126 .98361  23.7 31??  63d  93
2026 08 18 23  08 27 40.939   +01 30 25.36  .03183 .98308  23.7 31??  63d  93
2026 08 19 00  08 27 50.311   +01 30 57.35  .03240 .98255  23.7 31??  63d  93